Location: Asheville, NC
(35.6000°N, 82.5500°W)
Time: 10:48:55

NO-84 - Pass Details

Date: 11 March 2018
Orbit: 339 x 558 km, 55.0° (Epoch: 15 March)

Event Time Altitude Azimuth Distance (km) Brightness Sun altitude
Exits shadow 06:20:29 - 338° (NNW) 2,296 ? -18.3°
Reaches altitude 10° 06:22:58 10° 3° (N) 1,654 ? -17.8°
Maximum altitude 06:24:34 12° 28° (NNE) 1,485 ? -17.5°
Drops below altitude 10° 06:26:08 10° 54° (NE) 1,595 ? -17.2°
Sets 06:29:16 0° 86° (E) 2,400 ? -16.5°
